time_stamp(utc),avg(mph),gust(mph),direction(deg),12m_air_temp(f),sonic_u(cm/s),sonic_v(cm/s),sonic_w(cm/s),pressure,2m_air_temp(f),pyranometer(W/m^2)
"2018-09-29 00:02:07+00",4.5,5.5,,60.3,57,167,-3,1019.44,58.7,0
"2018-09-29 00:07:07+00",3.9,3.9,,60.3,20,157,4,1019.34,58.6,0
"2018-09-29 00:12:07+00",4.2,5.2,,60.4,-59,166,6,1019.43,58.6,0
"2018-09-29 00:17:07+00",4.8,4.8,,60.5,-82,185,15,1019.42,58.7,0
"2018-09-29 00:22:07+00",4.0,5.0,,60.5,-56,165,9,1019.41,58.7,0
"2018-09-29 00:27:07+00",3.6,4.6,,60.4,-65,135,9,1019.51,58.6,0
"2018-09-29 00:32:07+00",3.9,3.9,,60.4,-57,152,6,1019.6,58.6,0
"2018-09-29 00:37:07+00",3.2,4.2,,60.5,-62,114,8,1019.78,58.5,0
"2018-09-29 00:42:07+00",2.9,3.9,,60.5,-25,113,5,1019.77,58.6,0
"2018-09-29 00:47:07+00",4.1,5.1,,60.5,-14,169,-2,1019.8,58.6,0
"2018-09-29 00:52:07+00",4.3,4.3,,60.5,-51,172,4,1019.85,58.5,0
"2018-09-29 00:57:07+00",4.6,5.6,,60.7,-40,184,-1,1019.77,58.5,0
"2018-09-29 01:02:07+00",5.5,6.5,,60.8,-91,219,15,1019.85,58.5,0
"2018-09-29 01:07:07+00",6.0,7.0,,60.8,-95,241,21,1019.89,58.6,0
"2018-09-29 01:12:07+00",5.4,5.4,,60.9,-83,210,14,1019.86,58.7,0
"2018-09-29 01:17:07+00",4.9,4.9,,60.9,-95,183,12,1019.83,58.7,0
"2018-09-29 01:22:07+00",5.9,6.9,,60.9,-128,218,16,1019.8,58.9,0
"2018-09-29 01:27:07+00",5.7,5.7,,60.9,-120,218,17,1019.78,59,0
"2018-09-29 01:32:07+00",4.5,5.5,,60.9,-50,181,8,1019.83,59,0
"2018-09-29 01:37:07+00",3.9,4.9,,60.8,-4,160,5,1019.78,58.8,0
"2018-09-29 01:42:07+00",3.0,3.0,,60.8,-26,117,-1,1019.81,58.7,0
"2018-09-29 01:47:07+00",3.1,3.1,,60.7,-39,119,-2,1019.85,58.8,0
"2018-09-29 01:52:07+00",4.2,5.2,,60.7,-79,159,9,1019.96,58.8,0
"2018-09-29 01:57:07+00",4.2,5.2,,60.8,-81,158,7,1019.92,58.9,0
"2018-09-29 02:02:07+00",4.3,4.3,,60.9,-83,159,9,1019.85,58.9,0
"2018-09-29 02:07:07+00",4.3,4.3,,61,-80,160,11,1019.93,58.9,0
"2018-09-29 02:12:07+00",4.7,4.7,,61,-116,162,13,1019.91,58.9,0
"2018-09-29 02:17:07+00",4.9,4.9,,61,-114,174,13,1019.9,59,0
"2018-09-29 02:22:07+00",4.1,5.1,,61.1,-64,164,3,1019.95,58.9,0
"2018-09-29 02:27:07+00",3.8,3.8,,61,-61,141,11,1019.95,58.8,0
"2018-09-29 02:32:07+00",4.6,5.6,,60.9,-80,177,11,1019.87,58.7,0
"2018-09-29 02:37:07+00",3.9,4.9,,60.8,-70,145,8,1019.98,58.6,0
"2018-09-29 02:42:07+00",2.5,3.5,,60.9,-39,94,4,1020.05,58.7,0
"2018-09-29 02:47:07+00",2.4,2.4,,60.8,-19,97,2,1020.01,58.6,0
"2018-09-29 02:52:07+00",2.7,2.7,,60.9,-28,106,0,1020.06,58.7,0
"2018-09-29 02:57:07+00",2.5,2.5,,60.8,-50,90,3,1020.11,58.8,0
"2018-09-29 03:02:07+00",2.3,2.3,,60.9,-69,64,6,1020.11,58.9,0
"2018-09-29 03:07:07+00",2.7,2.7,,61.1,-94,62,7,1020.11,58.8,0
"2018-09-29 03:12:07+00",2.3,2.3,,61.3,-79,51,9,1020.17,58.7,0
"2018-09-29 03:17:07+00",2.2,2.2,,61.4,-76,55,9,1020.25,58.7,0
"2018-09-29 03:22:07+00",0.0,0.0,,61.5,-44,24,5,1020.28,58.7,0
"2018-09-29 03:27:07+00",0.0,0.0,,61.6,-60,1,7,1020.23,58.7,0
"2018-09-29 03:32:07+00",2.0,2.0,,61.7,-89,0,2,1020.31,58.7,0
"2018-09-29 03:37:07+00",0.9,1.9,,61.9,-62,21,13,1020.28,58.7,0
"2018-09-29 03:42:07+00",0.0,0.0,,61.9,-38,31,8,1020.3,58.8,0
"2018-09-29 03:47:07+00",0.0,0.0,,61.9,-47,22,-6,1020.32,58.9,0
"2018-09-29 03:52:07+00",0.0,0.0,,62,-44,63,-1,1020.38,59.1,0
"2018-09-29 03:57:07+00",0.0,0.0,,62,-39,51,2,1020.19,59.4,0
"2018-09-29 04:02:07+00",0.0,0.0,,62,-46,52,4,1020.32,59.6,0
"2018-09-29 04:07:07+00",0.0,0.0,,62.1,-42,44,4,1020.25,59.7,0
"2018-09-29 04:12:07+00",0.0,0.0,,62.2,-56,34,5,1020.35,59.7,0
"2018-09-29 04:17:07+00",2.5,2.5,,62.2,-103,-23,5,1020.3,59.7,0
"2018-09-29 04:22:07+00",2.8,3.8,,62.4,-111,-30,9,1020.41,59.6,0
"2018-09-29 04:27:07+00",3.0,3.0,,62.6,-130,3,13,1020.42,59.4,0
"2018-09-29 04:32:07+00",3.2,3.2,,62.7,-135,-5,10,1020.35,59.4,0
"2018-09-29 04:37:07+00",3.4,3.4,,62.8,-140,-18,11,1020.39,59.4,0
"2018-09-29 04:42:07+00",2.8,3.8,,62.8,-120,17,6,1020.38,59.3,0
"2018-09-29 04:47:07+00",2.6,3.6,,62.9,-111,24,22,1020.36,59.2,0
"2018-09-29 04:52:07+00",2.8,3.8,,63,-111,48,12,1020.46,59,0
"2018-09-29 04:57:07+00",4.5,4.5,,62.7,-196,-2,17,1020.35,59.3,0
"2018-09-29 05:02:07+00",4.5,4.5,,62.5,-186,-26,9,1020.41,59.8,0
"2018-09-29 05:07:07+00",4.1,4.1,,62.3,-173,-16,9,1020.35,60,0
"2018-09-29 05:12:07+00",3.5,3.5,,62.3,-148,2,8,1020.33,60.1,0
"2018-09-29 05:17:07+00",3.4,3.4,,62.3,-146,7,14,1020.35,60,0
"2018-09-29 05:22:07+00",3.1,3.1,,62.4,-127,-19,7,1020.46,59.9,0
"2018-09-29 05:27:07+00",2.5,2.5,,62.4,-99,-21,3,1020.4,59.7,0
"2018-09-29 05:32:07+00",1.7,2.7,,62.4,-70,-36,4,1020.37,59.6,0
"2018-09-29 05:37:07+00",2.2,3.2,,62.4,-87,-21,6,1020.44,59.5,0
"2018-09-29 05:42:07+00",2.0,2.0,,62.4,-73,-46,5,1020.49,59.5,0
"2018-09-29 05:47:07+00",2.2,2.2,,62.4,-90,-3,0,1020.39,59.7,0
"2018-09-29 05:52:07+00",3.3,4.3,,62.4,-130,-34,10,1020.33,59.7,0
"2018-09-29 05:57:07+00",3.6,4.6,,62.5,-146,-51,10,1020.38,59.7,0
"2018-09-29 06:02:07+00",4.1,5.1,,62.7,-161,-90,10,1020.31,59.7,0
"2018-09-29 06:07:07+00",4.3,4.3,,62.9,-130,-116,4,1020.37,59.8,0
"2018-09-29 06:12:07+00",3.9,3.9,,62.9,-144,-83,7,1020.33,59.8,0
"2018-09-29 06:17:07+00",4.5,4.5,,62.8,-181,-93,8,1020.15,59.9,0
"2018-09-29 06:22:07+00",4.7,4.7,,62.8,-194,-94,6,1020.14,59.9,0
"2018-09-29 06:27:07+00",5.3,5.3,,62.7,-235,-97,15,1020.16,60,0
"2018-09-29 06:32:07+00",5.0,6.0,,62.7,-220,-87,13,1020.06,60,0
"2018-09-29 06:37:07+00",5.8,6.8,,62.7,-233,-75,14,1020.08,59.9,0
"2018-09-29 06:42:07+00",4.8,4.8,,62.6,-203,-99,12,1020.11,59.9,0
"2018-09-29 06:47:07+00",5.1,6.1,,62.4,-214,-83,10,1020.02,59.9,0
"2018-09-29 06:52:07+00",5.2,6.2,,62.3,-222,-85,7,1020.07,59.9,0
"2018-09-29 06:57:07+00",4.9,5.9,,62.2,-207,-79,11,1020.01,59.9,0
"2018-09-29 07:02:07+00",5.1,6.1,,62.1,-208,-53,4,1020.01,59.8,0
"2018-09-29 07:07:07+00",5.0,6.0,,62.3,-201,-52,8,1020,59.8,0
"2018-09-29 07:12:07+00",5.3,5.3,,62.3,-211,-61,5,1020.07,59.8,0
"2018-09-29 07:17:07+00",5.9,6.9,,62.6,-240,-83,12,1020.06,59.7,0
"2018-09-29 07:22:07+00",6.7,6.7,,62.9,-266,-78,14,1020.05,59.8,0
"2018-09-29 07:27:07+00",7.2,8.2,,63.1,-285,-85,15,1020,59.9,0
"2018-09-29 07:32:07+00",7.7,7.7,,63.1,-305,-85,14,1020.12,59.9,0
"2018-09-29 07:37:07+00",6.8,7.8,,63.1,-290,-125,14,1020.09,60,0
"2018-09-29 07:42:07+00",6.5,7.5,,63.1,-292,-127,14,1020.08,60.1,0
"2018-09-29 07:47:07+00",7.3,7.3,,63.1,-294,-96,17,1020.07,60.2,0
"2018-09-29 07:52:07+00",6.8,7.8,,63.1,-283,-97,14,1019.99,60.3,0
"2018-09-29 07:57:07+00",6.5,7.5,,63.1,-262,-85,13,1020.12,60.4,0
"2018-09-29 08:02:07+00",6.0,7.0,,63.1,-273,-117,11,1020.2,60.3,0
"2018-09-29 08:07:07+00",6.2,7.2,,63,-261,-94,11,1020.14,60.3,0
"2018-09-29 08:12:07+00",6.3,7.3,,63.1,-254,-82,13,1020.28,60.3,0
"2018-09-29 08:17:07+00",5.7,5.7,,63.1,-239,-88,8,1020.25,60.2,0
"2018-09-29 08:22:07+00",5.4,6.4,,63.1,-227,-84,9,1020.22,60.3,0
"2018-09-29 08:27:07+00",5.7,5.7,,63,-230,-75,12,1020.25,60.4,0
"2018-09-29 08:32:07+00",5.8,5.8,,63,-232,-56,12,1020.28,60.5,0
"2018-09-29 08:37:07+00",5.2,5.2,,62.9,-207,-52,10,1020.28,60.6,0
"2018-09-29 08:42:07+00",4.3,4.3,,62.8,-178,-29,8,1020.36,60.7,0
"2018-09-29 08:47:07+00",4.6,5.6,,62.7,-193,-11,11,1020.49,60.7,0
"2018-09-29 08:52:07+00",4.8,4.8,,62.7,-207,3,16,1020.51,60.7,0
"2018-09-29 08:57:07+00",6.1,6.1,,62.7,-266,-2,20,1020.59,60.8,0
"2018-09-29 09:02:07+00",6.3,7.3,,62.7,-276,13,18,1020.6,60.8,0
"2018-09-29 09:07:07+00",6.7,7.7,,62.7,-292,-2,13,1020.56,61,0
"2018-09-29 09:12:07+00",6.1,7.1,,62.7,-265,32,17,1020.64,61.1,0
"2018-09-29 09:17:07+00",5.8,6.8,,62.7,-249,15,17,1020.62,61.2,0
"2018-09-29 09:22:07+00",7.0,8.0,,62.8,-307,32,19,1020.58,61.2,0
"2018-09-29 09:27:07+00",7.5,7.5,,62.9,-333,19,18,1020.61,61.3,0
"2018-09-29 09:32:07+00",6.5,7.5,,63,-285,37,19,1020.57,61.3,0
"2018-09-29 09:37:07+00",6.8,7.8,,63,-298,26,17,1020.56,61.3,0
"2018-09-29 09:42:07+00",6.7,7.7,,63,-296,14,15,1020.56,61.3,0
"2018-09-29 09:47:07+00",7.1,7.1,,62.8,-313,28,16,1020.69,61.3,0
"2018-09-29 09:52:07+00",6.8,7.8,,62.7,-300,20,23,1020.68,61.3,0
"2018-09-29 09:57:07+00",6.8,6.8,,62.6,-296,25,17,1020.72,61.3,0
"2018-09-29 10:02:07+00",7.2,7.2,,62.4,-314,14,16,1020.73,61.2,0
"2018-09-29 10:07:07+00",7.4,8.4,,62.3,-328,4,14,1020.8,61.2,0
"2018-09-29 10:12:07+00",6.5,7.5,,62.2,-284,23,26,1020.79,61.1,0
"2018-09-29 10:17:07+00",6.8,7.8,,62,-295,11,22,1020.87,61.1,0
"2018-09-29 10:22:07+00",6.2,7.2,,61.9,-271,7,15,1020.95,61,0
"2018-09-29 10:27:07+00",6.1,6.1,,61.8,-260,-3,18,1020.98,60.9,0
"2018-09-29 10:32:07+00",6.4,7.4,,61.7,-280,0,14,1021.04,60.8,0
"2018-09-29 10:37:07+00",5.7,6.7,,61.7,-249,4,14,1020.99,60.7,0
"2018-09-29 10:42:07+00",5.9,5.9,,61.7,-258,14,20,1021.07,60.7,0
"2018-09-29 10:47:07+00",6.5,7.5,,61.7,-287,17,12,1021.12,60.8,0
"2018-09-29 10:52:07+00",6.3,7.3,,61.7,-276,6,15,1021.08,60.8,0
"2018-09-29 10:57:07+00",7.3,8.3,,61.6,-323,18,16,1021.06,60.8,0
"2018-09-29 11:02:07+00",7.4,8.4,,61.7,-322,14,18,1021.07,60.7,0
"2018-09-29 11:07:07+00",7.0,8.0,,61.8,-305,22,14,1021.15,60.8,0
"2018-09-29 11:12:07+00",6.3,6.3,,61.8,-275,11,15,1021.16,60.9,0
"2018-09-29 11:17:07+00",6.5,7.5,,61.9,-284,22,18,1021.16,60.9,0
"2018-09-29 11:22:07+00",6.7,6.7,,62.1,-291,14,14,1021.16,61.1,0
"2018-09-29 11:27:07+00",6.2,6.2,,62.2,-271,-1,13,1021.18,61.2,10.8
"2018-09-29 11:32:07+00",6.5,7.5,,62.3,-283,12,12,1021.16,61.5,29
"2018-09-29 11:37:07+00",7.3,8.3,,62.5,-321,24,14,1021.17,61.8,39.7
"2018-09-29 11:42:07+00",6.2,7.2,,62.8,-274,19,24,1021.16,62.3,70
"2018-09-29 11:47:07+00",6.4,7.4,,63,-274,29,22,1021.29,62.8,82.2
"2018-09-29 11:52:07+00",6.5,7.5,,63.2,-281,37,12,1021.34,63.3,91.6
"2018-09-29 11:57:07+00",7.7,8.7,,63.3,-340,42,21,1021.27,63.8,96.3
"2018-09-29 12:02:07+00",7.1,8.1,,63.5,-311,65,18,1021.29,64.4,98.2
"2018-09-29 12:07:07+00",7.9,8.9,,63.7,-341,92,24,1021.25,64.9,99.6
"2018-09-29 12:12:07+00",8.3,9.3,,63.7,-367,44,15,1021.31,65.3,100
"2018-09-29 12:17:07+00",7.8,9.8,,63.8,-341,70,24,1021.25,65.7,102.5
"2018-09-29 12:22:07+00",8.2,10.2,,63.9,-344,81,35,1021.25,66,104.3
"2018-09-29 12:27:07+00",7.7,8.7,,63.9,-332,67,21,1021.21,66.3,107.6
"2018-09-29 12:32:07+00",9.0,10.0,,64,-388,105,20,1021.24,66.6,113.8
"2018-09-29 12:37:07+00",8.8,9.8,,64.1,-379,117,17,1021.38,66.7,125.9
"2018-09-29 12:42:07+00",9.2,11.2,,64.1,-403,92,17,1021.4,66.9,137.2
"2018-09-29 12:47:07+00",8.7,9.7,,64.2,-375,101,21,1021.43,67,149.7
"2018-09-29 12:52:07+00",10.1,11.1,,64.1,-442,69,22,1021.5,67,160.7
"2018-09-29 12:57:07+00",10.0,11.0,,64.3,-440,75,11,1021.53,67.2,170.6
"2018-09-29 13:02:07+00",10.1,11.1,,64.5,-447,44,21,1021.54,67.4,181.1
"2018-09-29 13:07:07+00",8.1,9.1,,64.5,-331,99,66,1021.6,67.6,190
"2018-09-29 13:12:07+00",8.8,9.8,,64.6,-383,88,29,1021.67,67.8,198.7
"2018-09-29 13:17:07+00",8.6,10.6,,64.8,-385,37,50,1021.86,68,207.2
"2018-09-29 13:22:07+00",8.6,10.6,,65.1,-376,47,56,1021.87,68.3,213.6
"2018-09-29 13:27:07+00",8.1,9.1,,65.3,-360,38,37,1021.85,68.8,221.6
"2018-09-29 13:32:07+00",7.8,9.8,,65.6,-340,32,49,1021.97,69,228.6
"2018-09-29 13:37:07+00",8.9,9.9,,65.8,-388,71,49,1021.99,69.3,236.5
"2018-09-29 13:42:07+00",9.6,11.6,,66,-418,77,19,1021.98,69.7,244
"2018-09-29 13:47:07+00",9.7,10.7,,66.1,-422,53,-10,1021.96,69.9,252
"2018-09-29 13:52:07+00",8.5,10.5,,66.4,-361,87,37,1021.96,70.1,258.5
"2018-09-29 13:57:07+00",9.0,10.0,,66.6,-393,63,13,1021.99,70.3,266.6
"2018-09-29 14:02:07+00",7.4,8.4,,66.7,-311,95,6,1022.02,70.5,274.5
"2018-09-29 14:07:07+00",7.8,8.8,,67.3,-322,113,31,1022.11,70.8,280.1
"2018-09-29 14:12:07+00",8.7,9.7,,67.3,-364,141,19,1022.09,71.1,288.1
"2018-09-29 14:17:07+00",7.7,8.7,,67.4,-333,48,21,1022.08,71.2,295.8
"2018-09-29 14:22:07+00",6.4,7.4,,67.7,-249,115,32,1022.04,71.7,304
"2018-09-29 14:27:07+00",9.7,10.7,,67.8,-411,143,18,1022.1,72,311.5
"2018-09-29 14:32:07+00",8.5,9.5,,68.1,-376,87,35,1022.13,72.2,317.9
"2018-09-29 14:37:07+00",9.5,10.5,,68.3,-404,122,12,1022.02,72.3,326.2
"2018-09-29 14:42:07+00",8.5,10.5,,68.6,-340,139,33,1022.08,72.5,332
"2018-09-29 14:47:07+00",10.6,11.6,,68.8,-462,90,24,1022.11,72.8,338.1
"2018-09-29 14:52:07+00",10.3,11.3,,68.9,-430,165,16,1022.07,73,347.3
"2018-09-29 14:57:07+00",10.9,11.9,,69.2,-412,244,21,1022.08,72.9,354.7
"2018-09-29 15:02:07+00",10.2,11.2,,69.4,-369,260,24,1022.01,72.7,361.8
"2018-09-29 15:07:07+00",12.9,13.9,,69.9,-417,401,32,1022.04,72.6,367.8
"2018-09-29 15:12:07+00",11.9,13.9,,70.1,-346,386,18,1022.1,72.5,372.8
"2018-09-29 15:17:07+00",7.7,8.7,,70.2,-151,308,19,1022.13,72.5,377.9
"2018-09-29 15:22:07+00",9.8,10.8,,70.2,-345,272,25,1022.16,72.8,383.1
"2018-09-29 15:27:07+00",8.9,9.9,,70.5,-263,285,14,1022.07,73.1,388.9
"2018-09-29 15:32:07+00",9.6,10.6,,70.6,-310,290,9,1022.19,73.1,394.5
"2018-09-29 15:37:07+00",10.3,12.3,,70.9,-323,337,50,1022.21,73,397.3
"2018-09-29 15:42:07+00",11.8,13.8,,71,-320,419,56,1022.22,73.1,404.9
"2018-09-29 15:47:07+00",10.0,12.0,,71.1,-247,362,41,1022.22,73.3,408.1
"2018-09-29 15:52:07+00",8.4,10.4,,71.1,-177,318,45,1022.23,73.4,411.1
"2018-09-29 15:57:07+00",8.9,9.9,,71.3,-87,372,17,1022.27,73.9,413.9
"2018-09-29 16:02:07+00",7.0,8.0,,71.6,-199,215,47,1022.26,74.4,416.2
"2018-09-29 16:07:07+00",7.1,8.1,,71.6,-162,261,16,1022.22,74.5,420.9
"2018-09-29 16:12:07+00",6.8,7.8,,71.8,-110,267,25,1022.25,74.7,423
"2018-09-29 16:17:07+00",8.7,11.7,,71.7,-316,220,78,1022.28,74.7,368.3
"2018-09-29 16:22:07+00",9.0,11.0,,71.7,-179,348,6,1022.33,74.7,432.5
"2018-09-29 16:27:07+00",8.0,11.0,,71.8,-123,320,11,1022.36,74.8,431.8
"2018-09-29 16:32:07+00",5.1,6.1,,71.8,-110,176,-21,1022.35,74.9,433.8
"2018-09-29 16:37:07+00",6.0,7.0,,71.9,-233,115,4,1022.35,75.3,440
"2018-09-29 16:42:07+00",4.4,6.4,,72,-163,82,40,1022.3,75.7,457
"2018-09-29 16:47:07+00",5.8,6.8,,72,-190,160,27,1022.25,76.5,433
"2018-09-29 16:52:07+00",4.9,7.9,,72.2,-166,108,40,1022.26,77,434.8
"2018-09-29 16:57:07+00",7.1,8.1,,72.4,-254,183,5,1022.18,77.2,433.7
"2018-09-29 17:02:07+00",6.4,7.4,,72.5,-196,192,18,1022.2,77,434.5
"2018-09-29 17:07:07+00",6.1,7.1,,72.5,-189,174,15,1022.09,76.5,430.1
"2018-09-29 17:12:07+00",6.0,7.0,,72.5,-228,131,-3,1022.16,76.2,430.5
"2018-09-29 17:17:07+00",4.6,5.6,,72.8,-134,132,49,1022.15,76.5,429.1
"2018-09-29 17:22:07+00",5.8,6.8,,72.9,-245,61,18,1022.11,77.2,422.1
"2018-09-29 17:27:07+00",3.3,4.3,,72.7,-126,25,-9,1022.01,77.6,417.5
"2018-09-29 17:32:07+00",4.6,6.6,,72.8,-185,-27,-14,1022,78.4,411.8
"2018-09-29 17:37:07+00",5.4,7.4,,72.8,-213,94,3,1021.91,78.9,411.7
"2018-09-29 17:42:07+00",2.0,3.0,,73,-72,5,16,1022,78.9,403.3
"2018-09-29 17:47:07+00",4.0,5.0,,73.3,-156,-58,42,1021.88,79.5,400.2
"2018-09-29 17:52:07+00",6.1,7.1,,73.1,-253,55,27,1021.91,80.1,392.7
"2018-09-29 17:57:07+00",4.3,5.3,,73.1,-171,69,22,1021.9,79.3,393
"2018-09-29 18:02:07+00",4.3,5.3,,73.2,-148,106,2,1021.93,79,389.8
"2018-09-29 18:07:07+00",4.0,5.0,,73.6,-111,100,61,1021.89,78.4,390.3
"2018-09-29 18:12:07+00",0.0,0.0,,73.7,-69,29,-7,1021.95,78.2,375.8
"2018-09-29 18:17:07+00",4.3,5.3,,73.7,-173,67,60,1021.85,78.5,383.1
"2018-09-29 18:22:07+00",5.0,6.0,,73.7,-190,104,44,1021.93,78.2,381.6
"2018-09-29 18:27:07+00",5.9,6.9,,73.6,-245,100,-2,1021.79,78.7,377.4
"2018-09-29 18:32:07+00",7.0,8.0,,73.8,-303,49,50,1021.78,79,365.1
"2018-09-29 18:37:07+00",11.3,12.3,,73.8,-494,132,22,1021.76,79.1,360.9
"2018-09-29 18:42:07+00",8.7,10.7,,74,-378,99,47,1021.77,79,358.5
"2018-09-29 18:47:07+00",6.0,7.0,,74,-258,45,29,1021.86,79.1,359.3
"2018-09-29 18:52:07+00",8.6,10.6,,74,-370,72,17,1021.89,79.4,348.8
"2018-09-29 18:57:07+00",9.7,10.7,,74.1,-422,107,17,1021.78,79.5,342.3
"2018-09-29 19:02:07+00",8.0,9.0,,74.4,-345,110,56,1021.79,79.7,337.7
"2018-09-29 19:07:07+00",6.2,7.2,,74.4,-256,92,4,1021.72,79.9,321
"2018-09-29 19:12:07+00",8.5,9.5,,74.5,-367,85,22,1021.72,80.1,313.3
"2018-09-29 19:17:07+00",6.9,7.9,,74.5,-298,83,6,1021.65,80.3,303.9
"2018-09-29 19:22:07+00",6.9,8.9,,74.6,-292,19,17,1021.59,80.6,293.4
"2018-09-29 19:27:07+00",7.4,8.4,,74.8,-311,117,14,1021.62,80.3,277.7
"2018-09-29 19:32:07+00",7.0,8.0,,75,-306,3,23,1021.69,80.5,282.5
"2018-09-29 19:37:07+00",4.5,5.5,,74.9,-191,36,15,1021.65,81,272.6
"2018-09-29 19:42:07+00",6.3,7.3,,74.9,-268,71,19,1021.71,81.6,258.7
"2018-09-29 19:47:07+00",4.9,5.9,,74.9,-209,-64,25,1021.57,82,256.6
"2018-09-29 19:52:07+00",5.1,6.1,,75.1,-217,50,24,1021.57,82.4,252.5
"2018-09-29 19:57:07+00",5.9,7.9,,75.1,-204,-113,15,1021.56,82.5,239.9
"2018-09-29 20:02:07+00",6.8,7.8,,74,-93,-269,-22,1021.61,79.7,233.5
"2018-09-29 20:07:07+00",2.7,4.7,,73.8,-63,-95,27,1021.6,77.9,232.9
"2018-09-29 20:12:07+00",6.5,7.5,,73.7,26,-277,-28,1021.61,76.6,229.8
"2018-09-29 20:17:07+00",6.3,7.3,,73.7,-112,-243,-7,1021.64,76.5,218
"2018-09-29 20:22:07+00",6.4,8.4,,73.6,170,-125,55,1021.55,75.9,218.8
"2018-09-29 20:27:07+00",9.5,10.5,,73.2,217,-351,4,1021.55,75.2,226.3
"2018-09-29 20:32:07+00",10.1,11.1,,72.4,230,-370,-3,1021.56,74.6,227.9
"2018-09-29 20:37:07+00",10.6,11.6,,72.3,344,-308,-1,1021.57,74.5,220.3
"2018-09-29 20:42:07+00",11.6,12.6,,71.9,346,-366,-15,1021.66,74.2,191.4
"2018-09-29 20:47:07+00",11.3,12.3,,71.5,315,-379,-14,1021.72,73.3,79.9
"2018-09-29 20:52:07+00",10.7,12.7,,71.5,244,-399,1,1021.64,72.9,165.3
"2018-09-29 20:57:07+00",8.4,11.4,,71.8,56,-380,4,1021.6,72.8,152.6
"2018-09-29 21:02:07+00",10.2,11.2,,71.7,125,-415,-1,1021.58,72.7,144.6
"2018-09-29 21:07:07+00",9.1,12.1,,71.8,71,-383,0,1021.58,72.7,135.5
"2018-09-29 21:12:07+00",12.1,13.1,,71.7,74,-508,-42,1021.6,72.5,128.3
"2018-09-29 21:17:07+00",10.8,11.8,,71.8,19,-453,-27,1021.67,72.3,119.4
"2018-09-29 21:22:07+00",10.3,12.3,,71.9,38,-437,-2,1021.74,72.4,106.9
"2018-09-29 21:27:07+00",10.1,13.1,,71.6,2,-421,-7,1021.63,72.1,84.8
"2018-09-29 21:32:07+00",10.1,12.1,,71.6,85,-413,-3,1021.63,72.1,45.3
"2018-09-29 21:37:07+00",9.9,11.9,,71.7,34,-422,-26,1021.77,72,76.3
"2018-09-29 21:42:07+00",9.5,11.5,,71.7,32,-403,-2,1021.73,72,64.8
"2018-09-29 21:47:07+00",10.2,12.2,,71.6,43,-431,-13,1021.83,72,54.4
"2018-09-29 21:52:07+00",9.1,11.1,,71.6,2,-389,-21,1021.75,71.9,45.4
"2018-09-29 21:57:07+00",9.2,11.2,,71.6,10,-373,-28,1021.78,71.9,33.4
"2018-09-29 22:02:07+00",7.3,8.3,,71.5,-20,-302,0,1021.73,71.7,23.8
"2018-09-29 22:07:07+00",9.4,11.4,,71.4,25,-400,-15,1021.68,71.6,15.6
"2018-09-29 22:12:07+00",7.8,9.8,,71.3,-13,-333,-13,1021.8,71.4,7.9
"2018-09-29 22:17:07+00",6.8,8.8,,71.2,-30,-282,-12,1021.8,71.2,0.8
"2018-09-29 22:22:07+00",7.1,8.1,,71.2,-29,-295,-5,1021.91,71.2,0
"2018-09-29 22:27:07+00",7.3,10.3,,71,-18,-312,-28,1021.95,70.9,0
"2018-09-29 22:32:07+00",5.3,7.3,,70.8,-51,-224,13,1021.96,70.8,0
"2018-09-29 22:37:07+00",5.6,7.6,,70.6,-32,-236,1,1021.94,70.6,0
"2018-09-29 22:42:07+00",6.9,8.9,,70.5,-67,-282,-15,1021.95,70.3,0
"2018-09-29 22:47:07+00",6.9,8.9,,70.4,-61,-287,1,1022,70.2,0
"2018-09-29 22:52:07+00",8.3,10.3,,70.3,-111,-325,3,1022.02,70,0
"2018-09-29 22:57:07+00",7.8,9.8,,70.2,-98,-320,0,1022.11,69.8,0
"2018-09-29 23:02:07+00",6.7,9.7,,70,-111,-262,-6,1022.25,69.6,0
"2018-09-29 23:07:07+00",5.4,6.4,,70.1,-58,-225,1,1022.29,69.5,0
"2018-09-29 23:12:07+00",7.0,8.0,,70.1,-93,-276,11,1022.24,69.5,0
"2018-09-29 23:17:07+00",6.4,7.4,,70.1,-78,-259,-12,1022.32,69.4,0
"2018-09-29 23:22:07+00",5.5,6.5,,69.8,-65,-229,5,1022.35,69.3,0
"2018-09-29 23:27:07+00",6.5,7.5,,70,-135,-249,-2,1022.33,69.1,0
"2018-09-29 23:32:07+00",5.7,6.7,,70.2,-144,-207,-6,1022.46,69,0
"2018-09-29 23:37:07+00",4.7,4.7,,69.9,-122,-176,4,1022.5,69,0
"2018-09-29 23:42:07+00",7.1,8.1,,70.1,-128,-270,-8,1022.55,68.9,0
"2018-09-29 23:47:07+00",5.2,6.2,,70.1,-114,-193,-5,1022.6,68.9,0
"2018-09-29 23:52:07+00",4.3,5.3,,70,-130,-133,-3,1022.66,68.8,0
"2018-09-29 23:57:07+00",4.3,5.3,,70.1,-123,-146,-2,1022.73,68.7,0
